Regional Weather Roundup
Issued by NWS Goodland, KS

Home | Current Version | Previous Version | Text Only | Print | Product List | Glossary Off
Versions: 1 2 3 4 5 6 7 8 9 10 11 12 13 14 15 16 17 18 19 20 21 22 23 24 25 26 27 28 29 30 31 32 33 34 35 36 37 38 39 40 41 42 43 44 45 46 47 48 49 50

000
ASUS43 KGLD 020059
RWRGLD

GOODLAND FORECAST AREA HOURLY WEATHER ROUNDUP
NATIONAL WEATHER SERVICE GOODLAND KS
700 PM MDT TUE SEP 01 2015

...OFFICIAL OBSERVATIONS...

CITY           SKY/WX    TMP DP  RH WIND       PRES   REMARKS
GOODLAND KS    PTCLDY    83  57  41 S12       29.96R
HILL CITY KS   CLEAR     90  56  31 S8        29.88S
IMPERIAL NEB   CLEAR     84  50  30 SE6       29.91F
MCCOOK NEB     CLEAR     87  58  37 SE6       29.88S
AKRON CO       CLEAR     84  36  18 S6        30.01S
BURLINGTON CO  MOCLDY    79  54  41 SE10      30.00R
LIMON CO       PTCLDY    77  48  35 S3        30.07S
$$

...UNOFFICIAL OBSERVATIONS...

CITY           SKY/WX    TMP DP  RH WIND       PRES   REMARKS
COLBY KS       PTCLDY    88  61  40 S8        29.94F
GOVE KS          N/A     88  32  13 MISG        N/A
LENORA KS        N/A     88  32  13 MISG        N/A
NORTON KS      PTCLDY    88  54  31 SE3       29.87S
KIT CARSON CO    N/A     84  56  38 MISG        N/A
$$



USA.gov is the U.S. government's official web portal to all federal, state and local government web resources and services.